Bethel, AK

3:11 PM AKST on November 21, 2017 (GMT -0900)
Bethel

Weather History for PABE - October, 2013

Change the Weather History Date:

Sunday, October 13, 2013

  Actual Average Record
Temperature  
Mean Temperature 40 °F 32 °F  
Max Temperature 44 °F 37 °F 57 °F (2002)
Min Temperature 35 °F 26 °F 0 °F (1927)
Degree Days  
Heating Degree Days 25 33  
Month to date heating degree days 346 390  
Since 1 July heating degree days 1541 1608  
Cooling Degree Days 0 0  
Month to date cooling degree days 0 0  
Year to date cooling degree days 18 4  
Moisture  
Dew Point 38 °F    
Average Humidity 0    
Maximum Humidity 0    
Minimum Humidity 0    
Precipitation  
Precipitation 0.13 in 0.06 in 0.47 in (2011)
Month to date precipitation 2.10 0.82  
Year to date precipitation 15.10 14.99  
Snow  
Snow 0.00 in 0.20 in - ()
Month to date snowfall 0.0 1.1  
Since 1 July snowfall 0.0 1.7  
Since 1 September snowfall 0.0 1.7  
Snow Depth 0.00 in    
Sea Level Pressure  
Sea Level Pressure 29.37 in    
Wind  
Wind Speed 7 mph (South)    
Max Wind Speed 16 mph    
Max Gust Speed 18 mph    
Visibility 9 miles    
Events Rain    
T = Trace of Precipitation, MM = Missing Value Source: NWS Daily Summary

Daily Weather History Graph

Daily Weather History Graph

Search for Another Location

Airport or City:

Trip Planner

Search our weather history database for the weather conditions in past years. The results will help you decide how hot, cold, wet, or windy it might be!

Date:

Astronomy

Oct. 13, 2013 Rise Set
Actual Time 9:24 AM AKDT 7:40 PM AKDT
Civil Twilight 8:41 AM AKDT 8:23 PM AKDT
Nautical Twilight 7:52 AM AKDT 9:13 PM AKDT
Astronomical Twilight 7:02 AM AKDT 10:03 PM AKDT
Moon 5:51 PM AKDT (10/13) 2:24 AM AKDT (10/13)
Length of Visible Light 11h 42m
Length of Day
10h 16m
Waxing Gibbous, 71% of the Moon is Illuminated
Oct 13
Waxing Gibbous
Oct 18
Full
Oct 26
Last Quarter
Nov 3
New
Nov 9
First Quarter

Hourly Weather History & Observations

Time (AKDT) Temp. Windchill Dew Point Humidity Pressure Visibility Wind Dir Wind Speed Gust Speed Precip Events Conditions
12:53 AM 39.0 °F 34.8 °F 35.1 °F 86% 29.24 in 10.0 mi East 5.8 mph - 0.00 in   Mostly Cloudy
1:53 AM 37.9 °F 33.5 °F 35.1 °F 89% 29.24 in 10.0 mi ESE 5.8 mph - N/A   Mostly Cloudy
2:53 AM 39.0 °F 36.8 °F 35.1 °F 86% 29.24 in 10.0 mi East 3.5 mph - N/A   Mostly Cloudy
3:53 AM 36.0 °F 32.1 °F 34.0 °F 93% 29.25 in 10.0 mi NNE 4.6 mph - N/A   Mostly Cloudy
4:53 AM 36.0 °F 33.3 °F 34.0 °F 93% 29.26 in 10.0 mi NE 3.5 mph - N/A   Overcast
5:53 AM 37.9 °F 34.4 °F 35.1 °F 89% 29.26 in 10.0 mi ENE 4.6 mph - 0.00 in   Overcast
6:53 AM 37.9 °F 35.5 °F 36.0 °F 93% 29.28 in 7.0 mi ENE 3.5 mph - 0.04 in Rain Light Rain
7:53 AM 37.9 °F 35.5 °F 37.0 °F 97% 29.29 in 10.0 mi NE 3.5 mph - 0.02 in Rain Light Rain
8:10 AM 37.4 °F 34.9 °F 37.4 °F 100% 29.28 in 10.0 mi ENE 3.5 mph - 0.01 in Rain Light Rain
8:53 AM 37.9 °F - 37.0 °F 97% 29.29 in 10.0 mi Calm Calm - 0.01 in Rain Light Rain
9:18 AM 37.4 °F 34.9 °F 37.4 °F 100% 29.29 in 10.0 mi East 3.5 mph - 0.01 in Rain Light Rain
9:53 AM 37.9 °F - 37.0 °F 97% 29.31 in 7.0 mi Calm Calm - 0.02 in Rain Light Rain
10:53 AM 39.0 °F - 37.9 °F 96% 29.33 in 8.0 mi Calm Calm - 0.01 in Rain Light Rain
11:18 AM 39.2 °F - 39.2 °F 100% 29.32 in 8.0 mi Calm Calm - 0.00 in Rain Light Rain
11:42 AM 39.2 °F - 39.2 °F 100% 29.33 in 10.0 mi Calm Calm - 0.01 in Rain Light Rain
11:53 AM 41.0 °F 38.0 °F 39.9 °F 96% 29.34 in 10.0 mi SSE 4.6 mph - 0.01 in Rain Light Rain
12:53 PM 42.1 °F 38.4 °F 41.0 °F 96% 29.35 in 10.0 mi South 5.8 mph - 0.00 in   Mostly Cloudy
1:31 PM 42.8 °F 38.6 °F 41.0 °F 93% 29.36 in 10.0 mi South 6.9 mph - N/A   Overcast
1:53 PM 44.1 °F 39.5 °F 41.0 °F 89% 29.37 in 10.0 mi SSW 8.1 mph - N/A   Overcast
2:53 PM 44.1 °F 39.0 °F 41.0 °F 89% 29.38 in 10.0 mi SSW 9.2 mph - N/A   Overcast
3:53 PM 43.0 °F 36.0 °F 41.0 °F 93% 29.39 in 10.0 mi SW 13.8 mph - N/A   Overcast
4:08 PM 44.6 °F 38.8 °F 41.0 °F 87% 29.38 in 10.0 mi South 11.5 mph - N/A   Overcast
4:53 PM 43.0 °F 36.4 °F 42.1 °F 97% 29.39 in 4.0 mi SW 12.7 mph - 0.00 in   Overcast
5:53 PM 43.0 °F 36.0 °F 39.0 °F 86% 29.41 in 8.0 mi SW 13.8 mph - N/A   Overcast
6:17 PM 42.8 °F 35.4 °F 39.2 °F 87% 29.41 in 5.0 mi SSW 15.0 mph - N/A   Overcast
6:31 PM 41.0 °F 34.7 °F 39.2 °F 93% 29.41 in 3.0 mi SW 10.4 mph - 0.00 in   Overcast
6:53 PM 41.0 °F 33.9 °F 41.0 °F 100% 29.43 in 3.0 mi SSW 12.7 mph - 0.00 in Rain Light Rain
7:09 PM 41.0 °F 35.2 °F 39.2 °F 93% 29.43 in 3.0 mi SW 9.2 mph - 0.01 in   Mostly Cloudy
7:24 PM 39.2 °F 32.5 °F 39.2 °F 100% 29.44 in 10.0 mi SSW 10.4 mph - 0.01 in   Scattered Clouds
7:53 PM 39.9 °F 34.5 °F 39.0 °F 97% 29.47 in 10.0 mi SSW 8.1 mph - 0.01 in   Mostly Cloudy
8:23 PM 39.2 °F 33.0 °F 39.2 °F 100% 29.47 in 4.0 mi SW 9.2 mph - 0.00 in   Overcast
8:48 PM 39.2 °F 32.5 °F 39.2 °F 100% 29.48 in 4.0 mi SW 10.4 mph - 0.01 in   Overcast
8:53 PM 39.0 °F 32.3 °F 39.0 °F 100% 29.49 in 10.0 mi SW 10.4 mph - 0.01 in   Mostly Cloudy
9:53 PM 39.0 °F 31.4 °F 39.0 °F 100% 29.51 in 10.0 mi SW 12.7 mph - N/A   Mostly Cloudy
10:53 PM 37.9 °F 31.5 °F 37.9 °F 100% 29.53 in 10.0 mi SW 9.2 mph - N/A   Scattered Clouds
11:51 PM 37.4 °F 30.8 °F 37.4 °F 100% 29.55 in 10.0 mi SSW 9.2 mph - N/A   Overcast
11:53 PM 37.9 °F 32.7 °F 37.9 °F 100% 29.56 in 10.0 mi SSW 6.9 mph - N/A   Overcast